Weather History for KTCM - October, 2010

Change the Weather History Date:

Sunday, October 24, 2010

  Actual Average Record
Temperature  
Mean Temperature 50 °F -  
Max Temperature 53 °F 55 °F - (-1)
Min Temperature 46 °F 37 °F - (-1)
Degree Days  
Heating Degree Days 16    
Moisture  
Dew Point 45 °F    
Average Humidity 88    
Maximum Humidity 100    
Minimum Humidity 76    
Precipitation  
Precipitation 1.08 in - - ()
Sea Level Pressure  
Sea Level Pressure 29.40 in    
Wind  
Wind Speed 12 mph (South)    
Max Wind Speed 22 mph    
Max Gust Speed 33 mph    
Visibility 9 miles    
Events Rain , Thunderstorm    
Averages and records for this station are not official NWS values.
T = Trace of Precipitation, MM = Missing Value Source: NWS Daily Summary

Daily Weather History Graph

Daily Weather History Graph

Search for Another Location

Airport or City:

Trip Planner

Search our weather history database for the weather conditions in past years. The results will help you decide how hot, cold, wet, or windy it might be!

Date:

Astronomy

Oct. 24, 2010 Rise Set
Actual Time 7:41 AM PDT 6:06 PM PDT
Civil Twilight 7:09 AM PDT 6:37 PM PDT
Nautical Twilight 6:34 AM PDT 7:13 PM PDT
Astronomical Twilight 5:58 AM PDT 7:48 PM PDT
Moon 6:38 PM PDT (10/24) 9:41 AM PDT (10/24)
Length of Visible Light 11h 27m
Length of Day
10h 24m
Full, 97% of the Moon is Illuminated
Oct 24
Full
Oct 30
Last Quarter
Nov 5
New
Nov 13
First Quarter
Nov 21
Full

Hourly Weather History & Observations

Time (PDT) Temp. Windchill Dew Point Humidity Pressure Visibility Wind Dir Wind Speed Gust Speed Precip Events Conditions
12:15 AM 51.8 °F - 48.2 °F 88% 29.42 in 10.0 mi SE 6.9 mph - N/A   Clear
12:55 AM 51.8 °F - 46.6 °F 82% 29.39 in 10.0 mi SSE 8.1 mph - 0.01 in   Partly Cloudy
1:55 AM 52.7 °F - 45.3 °F 76% 29.33 in 10.0 mi SE 10.4 mph - N/A   Partly Cloudy
2:13 AM 51.8 °F - 46.4 °F 82% 29.33 in 10.0 mi SSE 11.5 mph - N/A Rain Light Rain
2:55 AM 52.0 °F - 46.2 °F 81% 29.31 in 10.0 mi SSE 9.2 mph - 0.02 in Rain Light Rain
3:49 AM 50.0 °F - 48.2 °F 94% 29.32 in 10.0 mi SSE 9.2 mph - N/A   Mostly Cloudy
3:55 AM 50.5 °F - 47.7 °F 90% 29.32 in 10.0 mi South 6.9 mph - 0.03 in   Overcast
4:55 AM 52.3 °F - 47.8 °F 85% 29.32 in 10.0 mi South 16.1 mph 19.6 mph N/A   Clear
5:29 AM 53.6 °F - 48.2 °F 82% 29.37 in 10.0 mi WSW 16.1 mph 24.2 mph N/A Rain Light Rain
5:36 AM 50.0 °F - 44.6 °F 82% 29.35 in 2.5 mi SW 17.3 mph 33.4 mph N/A Rain Heavy Rain
5:41 AM 48.2 °F - 42.8 °F 82% 29.35 in 3.0 mi SSW 11.5 mph 33.4 mph N/A Rain Light Rain
5:55 AM 48.0 °F - 44.8 °F 89% 29.34 in 10.0 mi SSW 6.9 mph - 0.17 in Rain Light Rain
5:56 AM 48.2 °F - 44.6 °F 87% 29.34 in 10.0 mi SSW 5.8 mph - N/A   Scattered Clouds
6:28 AM 48.2 °F - 44.6 °F 87% 29.33 in 10.0 mi SSE 5.8 mph - N/A Rain Light Rain
6:38 AM 46.4 °F 42.4 °F 46.4 °F 100% 29.33 in 10.0 mi SSE 8.1 mph - N/A   Scattered Clouds
6:55 AM 46.2 °F 42.7 °F 44.8 °F 95% 29.33 in 10.0 mi SSE 6.9 mph - 0.01 in   Partly Cloudy
7:51 AM 50.0 °F - 46.4 °F 87% 29.33 in 9.0 mi South 12.7 mph - N/A Rain Light Rain
7:55 AM 50.4 °F - 45.5 °F 83% 29.33 in 6.0 mi SSW 12.7 mph - 0.02 in Rain Rain
8:49 AM 50.0 °F - 46.4 °F 87% 29.33 in 10.0 mi South 9.2 mph - N/A   Scattered Clouds
8:55 AM 50.2 °F - 47.3 °F 90% 29.34 in 10.0 mi South 9.2 mph - 0.24 in   Scattered Clouds
9:55 AM 49.8 °F - 46.2 °F 87% 29.35 in 10.0 mi South 12.7 mph - N/A   Mostly Cloudy
10:47 AM 51.8 °F - 46.4 °F 82% 29.35 in 10.0 mi South 10.4 mph - N/A Rain Light Rain
10:55 AM 51.1 °F - 46.6 °F 85% 29.36 in 10.0 mi South 13.8 mph - 0.01 in Rain Light Rain
11:04 AM 50.0 °F - 44.6 °F 82% 29.36 in 9.0 mi South 18.4 mph 25.3 mph N/A Rain Light Rain
11:06 AM 50.0 °F - 44.6 °F 82% 29.36 in 9.0 mi SSW 18.4 mph 31.1 mph N/A Rain Light Rain
11:36 AM 50.0 °F - 46.4 °F 87% 29.36 in 10.0 mi SSE 9.2 mph - N/A   Mostly Cloudy
11:55 AM 49.6 °F - 46.0 °F 87% 29.37 in 10.0 mi SSE 9.2 mph - 0.07 in   Partly Cloudy
12:55 PM 50.4 °F - 45.3 °F 83% 29.37 in 10.0 mi SSE 13.8 mph 19.6 mph N/A   Partly Cloudy
1:23 PM 53.6 °F - 46.4 °F 77% 29.37 in 10.0 mi South 13.8 mph 21.9 mph N/A Thunderstorm Thunderstorm
1:35 PM 51.8 °F - 44.6 °F 76% 29.37 in 10.0 mi South 15.0 mph 21.9 mph N/A Rain , Thunderstorm Light Thunderstorms and Rain
1:40 PM 51.8 °F - 44.6 °F 76% 29.37 in 10.0 mi South 12.7 mph - N/A Rain Light Rain
1:52 PM 50.0 °F - 44.6 °F 82% 29.40 in 4.0 mi WSW 19.6 mph 27.6 mph N/A Rain Heavy Rain
1:54 PM 48.2 °F - 44.6 °F 87% 29.40 in 2.5 mi WSW 21.9 mph 31.1 mph N/A Rain Heavy Rain
1:55 PM 48.6 °F - 43.9 °F 84% 29.40 in 2.0 mi SW 20.7 mph 31.1 mph 0.12 in Rain Heavy Rain
1:56 PM 48.2 °F - 42.8 °F 82% 29.40 in 2.0 mi SSW 18.4 mph 31.1 mph N/A Rain Heavy Rain
1:57 PM 48.2 °F - 42.8 °F 82% 29.40 in 1.8 mi SSW 18.4 mph 31.1 mph N/A Rain Rain
1:58 PM 48.2 °F - 42.8 °F 82% 29.40 in 1.5 mi SSW 17.3 mph 31.1 mph N/A Rain Rain
2:04 PM 46.4 °F 40.4 °F 42.8 °F 87% 29.40 in 1.8 mi SSW 13.8 mph 27.6 mph N/A Rain Light Rain
2:05 PM 46.4 °F 40.7 °F 42.8 °F 87% 29.39 in 2.0 mi South 12.7 mph 27.6 mph N/A Rain Rain
2:07 PM 46.4 °F 40.1 °F 42.8 °F 87% 29.39 in 2.5 mi South 15.0 mph 24.2 mph N/A Rain Light Rain
2:08 PM 46.4 °F 40.4 °F 44.6 °F 93% 29.39 in 3.0 mi South 13.8 mph 24.2 mph N/A Rain Light Rain
2:13 PM 46.4 °F 41.5 °F 44.6 °F 93% 29.39 in 7.0 mi South 10.4 mph - N/A Rain Light Rain
2:19 PM 46.4 °F 41.1 °F 44.6 °F 93% 29.39 in 10.0 mi South 11.5 mph - N/A Rain Light Rain
2:37 PM 48.2 °F - 46.4 °F 93% 29.38 in 10.0 mi South 12.7 mph - N/A   Scattered Clouds
2:55 PM 50.4 °F - 46.6 °F 87% 29.38 in 10.0 mi South 12.7 mph - 0.05 in   Clear
3:51 PM 50.0 °F - 46.4 °F 87% 29.39 in 10.0 mi South 11.5 mph - N/A Rain Light Rain
3:55 PM 50.7 °F - 45.5 °F 82% 29.39 in 10.0 mi South 11.5 mph - 0.00 in Rain Light Rain
4:48 PM 48.2 °F - 46.4 °F 93% 29.42 in 10.0 mi South 13.8 mph - N/A   Overcast
4:51 PM 48.2 °F - 46.4 °F 93% 29.42 in 10.0 mi South 12.7 mph - N/A Rain Light Rain
4:55 PM 48.7 °F - 45.5 °F 89% 29.41 in 10.0 mi SSE 12.7 mph 20.7 mph 0.08 in Rain Light Rain
5:07 PM 48.2 °F - 44.6 °F 87% 29.41 in 10.0 mi South 12.7 mph - N/A   Scattered Clouds
5:27 PM 48.2 °F - 44.6 °F 87% 29.41 in 10.0 mi SSE 10.4 mph - N/A Rain Light Rain
5:53 PM 48.2 °F - 44.6 °F 87% 29.42 in 10.0 mi SSE 10.4 mph - N/A Rain Light Rain
5:54 PM 48.2 °F - 44.6 °F 87% 29.42 in 10.0 mi SSE 10.4 mph - N/A Rain Light Rain
5:55 PM 47.7 °F - 45.1 °F 91% 29.42 in 10.0 mi South 10.4 mph - 0.00 in Rain Light Rain
6:08 PM 48.2 °F - 44.6 °F 87% 29.42 in 9.0 mi South 12.7 mph - N/A   Overcast
6:18 PM 48.2 °F - 44.6 °F 87% 29.43 in 10.0 mi South 13.8 mph - N/A Rain Light Rain
6:41 PM 46.4 °F 40.4 °F 44.6 °F 93% 29.43 in 10.0 mi South 13.8 mph - N/A   Scattered Clouds
6:55 PM 47.1 °F - 44.6 °F 91% 29.43 in 10.0 mi SSE 13.8 mph - 0.03 in   Partly Cloudy
7:06 PM 46.4 °F 41.1 °F 44.6 °F 93% 29.44 in 10.0 mi South 11.5 mph - N/A Rain Light Rain
7:52 PM 46.4 °F 40.1 °F 44.6 °F 93% 29.46 in 10.0 mi South 15.0 mph 19.6 mph N/A   Overcast
7:55 PM 47.1 °F - 44.6 °F 91% 29.46 in 10.0 mi South 13.8 mph - 0.07 in   Overcast
7:58 PM 46.4 °F 40.1 °F 44.6 °F 93% 29.46 in 10.0 mi South 15.0 mph - N/A Rain Light Rain
8:08 PM 46.4 °F 41.1 °F 44.6 °F 93% 29.47 in 10.0 mi South 11.5 mph - N/A   Overcast
8:15 PM 46.4 °F 41.1 °F 44.6 °F 93% 29.46 in 10.0 mi South 11.5 mph - N/A Rain Light Rain
8:21 PM 46.4 °F 41.1 °F 44.6 °F 93% 29.46 in 10.0 mi SSE 11.5 mph - N/A Rain Light Rain
8:27 PM 46.4 °F 40.7 °F 44.6 °F 93% 29.47 in 10.0 mi SSE 12.7 mph - N/A Rain Light Rain
8:29 PM 46.4 °F 41.1 °F 44.6 °F 93% 29.47 in 10.0 mi SSE 11.5 mph - N/A   Mostly Cloudy
8:39 PM 46.4 °F 41.1 °F 44.6 °F 93% 29.47 in 10.0 mi South 11.5 mph - N/A Rain Light Rain
8:55 PM 46.8 °F - 44.8 °F 93% 29.48 in 9.0 mi South 11.5 mph - 0.07 in Rain Light Rain
9:13 PM 46.4 °F 40.1 °F 44.6 °F 93% 29.48 in 10.0 mi SSE 15.0 mph - N/A   Mostly Cloudy
9:30 PM 46.4 °F 40.4 °F 44.6 °F 93% 29.48 in 10.0 mi SSE 13.8 mph - N/A Rain Light Rain
9:53 PM 46.4 °F 40.7 °F 44.6 °F 93% 29.49 in 10.0 mi SSE 12.7 mph - N/A   Mostly Cloudy
9:55 PM 46.8 °F - 44.2 °F 91% 29.49 in 10.0 mi SSE 13.8 mph - 0.02 in Rain Light Rain
10:26 PM 46.4 °F 40.7 °F 44.6 °F 93% 29.50 in 10.0 mi South 12.7 mph - N/A Rain Light Rain
10:54 PM 46.4 °F 40.4 °F 44.6 °F 93% 29.51 in 10.0 mi SSE 13.8 mph - N/A   Mostly Cloudy
10:55 PM 46.4 °F 40.4 °F 43.9 °F 91% 29.51 in 10.0 mi SSE 13.8 mph - 0.04 in   Mostly Cloudy
10:57 PM 46.4 °F 40.4 °F 44.6 °F 93% 29.51 in 10.0 mi SSE 13.8 mph - N/A   Mostly Cloudy
11:09 PM 46.4 °F 41.5 °F 44.6 °F 93% 29.52 in 10.0 mi South 10.4 mph - N/A Rain Light Rain
11:48 PM 46.4 °F 40.7 °F 44.6 °F 93% 29.53 in 10.0 mi SSE 12.7 mph - N/A   Mostly Cloudy
11:55 PM 46.4 °F 40.4 °F 44.1 °F 92% 29.53 in 10.0 mi SSE 13.8 mph - 0.02 in   Mostly Cloudy